ECMWFFLT2_925_thetae_021.txt.gz
Theta_e
342 342 341 340 340 339 337 335 334 334 335 335 335 335 335 334 333 334 336 337 336 337 336 336 336 335 335 335 335 334 333 332 328 325 324 324 323 322 321 322 324 325 325 329 330 328 330 329 328 331 334 334 335 335 335 334 333 332 330 329 327 326
343 342 340 340 339 338 336 336 336 335 335 334 335 334 333 332 333 335 336 337 336 335 336 336 336 335 334 334 333 333 332 331 326 324 325 324 323 322 322 322 323 324 323 326 329 329 331 329 328 330 333 334 335 335 334 333 333 332 330 328 326 326
342 341 339 339 338 338 337 336 335 334 333 334 334 331 330 331 333 335 336 336 336 335 336 336 335 334 333 332 332 332 331 330 327 325 326 324 324 323 322 322 323 324 323 325 328 329 330 329 327 328 329 332 334 334 333 333 332 331 329 327 326 326
339 339 339 338 338 338 336 334 333 332 333 333 331 329 330 332 333 334 336 336 335 335 336 337 337 336 334 332 330 331 331 329 328 327 326 324 323 323 323 322 323 323 322 325 328 329 330 329 327 326 329 332 334 335 333 332 332 330 328 326 325 326
338 338 336 336 336 335 333 331 332 332 332 331 330 331 333 332 332 335 336 336 335 336 336 337 336 335 334 332 329 329 329 329 328 327 325 326 325 324 324 323 325 325 323 326 328 330 331 330 329 327 331 334 334 335 333 331 332 330 327 324 324 327
337 336 335 333 333 332 331 331 332 333 331 331 332 334 334 330 331 335 336 335 336 336 335 334 333 333 333 331 328 328 328 328 327 327 326 329 331 328 326 326 328 328 328 330 331 332 333 332 331 328 331 334 334 334 332 331 331 329 326 322 323 327
334 335 335 333 331 331 333 333 333 334 333 334 336 336 333 330 332 335 336 335 335 335 333 332 332 332 332 330 329 329 331 331 330 331 330 331 333 332 331 330 329 331 331 332 332 333 333 333 334 331 332 334 333 333 332 332 331 330 327 321 323 326
335 336 335 334 333 333 337 337 335 336 335 336 337 335 334 333 333 335 335 335 335 334 333 332 332 332 332 330 331 332 334 335 333 333 332 331 333 333 334 333 332 332 332 333 333 333 332 333 333 332 332 333 333 332 332 332 331 330 325 319 319 324
335 337 336 336 337 335 337 337 336 336 334 335 336 335 335 335 334 335 335 335 335 334 333 332 332 332 332 331 331 333 334 335 335 334 333 331 332 332 333 333 333 333 333 332 332 331 331 332 332 332 332 332 332 333 333 332 331 330 322 317 318 324
336 337 337 337 337 335 335 334 333 334 333 333 334 334 335 335 334 335 334 334 335 334 333 333 332 333 333 332 332 332 333 334 334 334 333 332 331 331 332 333 333 333 332 331 330 330 331 331 331 332 332 331 331 332 332 332 332 330 321 318 321 326
337 337 337 337 337 336 335 334 334 334 334 333 333 333 335 335 335 335 334 334 335 334 333 334 334 333 334 333 332 332 332 332 332 332 332 331 331 331 332 332 332 332 331 330 328 328 329 330 331 331 331 330 331 330 332 333 332 330 323 320 323 326
336 336 336 336 336 336 335 334 334 334 334 334 334 335 336 336 335 336 335 334 334 333 333 334 334 333 333 333 332 332 332 332 332 332 332 332 331 331 331 331 331 330 329 328 327 328 329 330 330 331 330 330 331 330 332 332 332 331 325 321 323 326
335 335 335 335 335 335 334 333 333 334 334 335 334 334 336 336 335 335 334 333 332 333 333 333 333 332 332 332 332 332 332 333 333 333 333 333 332 331 331 330 330 329 329 329 328 329 329 330 330 330 329 329 330 330 331 332 332 331 329 325 323 325
335 335 335 334 334 334 334 334 334 335 335 334 333 333 335 335 334 333 334 333 332 333 334 333 332 333 333 332 333 333 333 334 334 334 333 333 333 331 331 330 330 329 328 328 328 329 330 330 329 329 329 330 330 330 331 331 331 331 331 330 326 325
335 334 334 333 334 334 334 334 334 336 335 334 335 335 335 334 333 332 332 333 333 334 333 333 333 333 333 332 332 333 334 334 334 333 332 332 333 332 332 330 330 329 328 328 329 330 330 329 329 330 329 329 330 331 331 331 331 331 331 331 329 327
334 334 333 334 334 333 334 335 335 336 336 336 336 334 331 331 332 333 333 333 334 333 333 333 332 333 333 332 332 333 334 334 333 333 332 332 332 332 332 330 330 330 329 329 329 330 331 330 329 329 329 330 331 332 331 331 331 331 331 331 331 330
333 333 334 334 334 333 334 336 336 336 337 337 337 334 332 331 333 335 334 334 334 334 334 334 333 333 335 334 334 334 334 334 333 333 332 332 333 332 332 331 330 329 329 330 330 330 333 332 330 330 330 330 331 331 331 330 331 331 331 331 331 331
334 334 334 334 334 334 335 337 337 336 337 337 336 335 334 334 335 335 336 335 334 334 335 335 334 334 335 335 334 334 334 333 332 333 333 332 333 332 332 331 330 330 329 330 330 330 332 332 331 330 330 330 331 331 331 330 330 330 331 330 330 330
334 334 333 334 334 335 335 336 335 335 335 335 333 333 333 333 334 335 335 335 335 335 334 334 334 334 335 334 335 334 333 333 332 333 333 332 333 332 332 332 331 330 329 330 331 331 330 331 332 331 330 331 330 331 330 330 330 330 329 330 329 329
334 334 333 332 333 333 335 335 335 334 333 332 330 330 331 331 332 334 334 335 335 335 334 334 335 334 335 335 334 333 331 332 332 333 333 333 333 333 333 332 332 331 329 330 331 330 329 330 332 331 330 330 330 331 330 330 329 329 329 329 329 328
335 334 333 333 333 334 335 335 333 332 330 329 329 330 331 333 333 334 335 335 335 335 334 334 334 334 335 335 334 332 331 332 332 333 334 333 333 334 333 333 333 332 331 331 331 330 330 330 331 330 330 330 329 330 330 330 329 328 328 328 328 328
335 333 332 332 332 332 333 332 330 330 329 329 330 332 333 333 333 334 335 334 335 334 334 334 335 334 334 334 333 332 333 333 332 333 334 334 333 333 333 333 333 332 331 331 331 332 331 330 330 330 330 330 329 330 329 329 329 328 327 328 327 326
333 330 330 330 330 330 329 328 329 329 329 329 330 331 330 331 332 334 334 334 334 334 334 334 334 334 334 333 332 332 333 333 333 333 334 334 333 332 332 333 333 332 331 331 332 332 332 330 331 330 330 331 332 331 330 327 327 327 326 326 326 324
331 328 329 329 329 328 327 327 328 329 329 330 330 330 330 330 331 332 333 334 334 333 332 332 333 333 333 332 332 332 332 332 332 333 332 333 334 333 333 332 333 332 331 330 331 332 331 330 331 330 330 332 330 332 333 329 326 326 325 324 324 323
329 327 329 329 328 327 326 326 327 327 327 328 329 329 330 330 329 329 331 332 332 332 331 331 331 332 332 332 332 331 331 331 331 331 331 332 334 333 333 333 333 331 330 330 330 330 330 329 330 330 330 331 330 333 335 330 327 325 322 323 322 322
327 327 328 328 327 327 324 322 323 323 324 327 328 327 326 327 328 329 330 330 330 330 329 329 329 330 330 331 330 330 330 330 330 330 330 332 334 333 333 333 333 332 330 330 330 330 329 328 329 330 330 331 331 332 331 329 331 326 320 321 321 321
326 326 327 326 326 324 321 320 320 321 324 327 326 325 325 326 328 328 327 327 328 327 327 327 327 327 327 328 327 327 328 328 329 330 329 330 332 332 332 331 331 331 330 329 329 329 328 327 328 329 330 330 329 329 327 327 330 327 322 321 320 321
325 325 326 325 323 320 320 323 324 325 327 328 325 324 324 325 325 324 321 324 327 326 326 326 326 326 326 327 327 327 327 326 327 328 328 328 328 329 331 331 330 331 330 328 328 329 329 328 328 329 329 329 328 328 327 326 326 324 323 323 320 320
326 327 327 325 322 323 325 327 328 328 328 327 325 322 323 322 322 323 322 325 327 326 326 326 325 326 325 326 326 326 326 326 326 327 327 328 327 328 330 330 329 330 330 329 328 328 329 329 329 329 329 329 329 328 327 326 324 320 320 322 321 320
330 329 329 327 325 327 328 328 328 328 327 325 324 322 321 322 322 324 324 325 325 326 326 326 325 326 326 326 325 325 325 325 326 327 327 328 329 329 330 330 329 329 329 329 329 328 328 328 329 329 329 328 329 328 327 327 326 322 319 319 320 319
332 330 330 329 328 328 328 327 326 326 324 322 322 322 321 321 322 323 323 323 324 325 326 325 325 326 326 325 325 325 325 325 325 326 327 327 327 328 329 330 330 329 330 330 329 329 328 328 328 329 329 329 328 327 326 327 325 324 321 318 319 319
333 332 331 330 329 329 327 325 324 323 322 322 322 322 321 322 322 322 322 323 324 325 325 324 324 325 324 324 325 325 325 324 325 326 326 326 327 329 330 329 329 330 330 330 329 329 328 327 328 328 328 328 328 326 326 325 324 324 321 318 318 318
334 332 330 329 328 328 326 324 322 322 322 322 323 322 322 322 322 322 323 324 324 325 324 323 324 324 324 324 324 325 324 324 325 325 325 326 327 329 330 329 329 329 329 329 328 327 326 326 326 326 326 326 326 326 324 322 322 322 321 318 317 315
333 331 328 328 329 327 326 324 322 322 322 323 322 322 322 323 322 323 322 323 324 324 324 323 323 324 325 325 325 324 324 324 325 324 325 326 328 329 329 329 328 328 328 328 326 324 322 322 321 322 322 321 320 320 317 317 320 321 321 318 316 314
330 331 330 329 329 328 326 324 322 323 323 323 322 321 322 322 322 322 321 322 323 324 323 323 324 324 325 325 324 324 324 324 324 324 324 326 327 328 328 327 326 326 326 325 322 319 317 315 314 314 315 314 314 314 314 315 317 319 320 318 315 314
328 332 333 331 329 328 327 326 324 323 322 322 321 321 321 321 321 321 322 323 324 323 323 324 323 324 323 323 324 325 324 323 323 323 323 325 324 325 325 325 324 323 322 321 318 316 314 314 313 313 313 313 313 314 314 315 315 316 317 316 315 314
332 334 334 332 329 328 328 328 325 323 322 322 321 320 320 320 321 322 323 323 323 323 323 323 322 321 321 321 323 324 322 322 321 321 321 322 321 321 322 322 322 321 320 319 317 314 314 314 313 313 314 313 314 314 315 315 315 315 316 316 315 315

ECMWFFLT2_925_thetae_024.txt.gz
Theta_e
342 341 341 340 340 340 339 338 335 333 334 336 337 337 336 335 335 336 337 337 337 337 337 338 337 336 335 334 334 333 331 328 325 324 324 323 323 323 324 326 326 327 329 329 327 325 327 331 333 331 330 332 334 334 332 331 329 328 327 327 326 327
342 341 341 340 340 339 338 336 334 334 336 336 336 336 334 334 334 336 337 336 336 336 336 336 335 335 334 334 333 332 330 326 324 324 323 322 321 322 323 323 324 324 326 329 328 328 329 330 332 330 330 333 335 334 332 330 329 328 327 326 326 327
342 342 341 340 340 338 337 336 336 335 335 336 335 334 333 334 335 336 337 336 336 336 335 335 334 334 333 333 332 330 329 326 325 325 323 323 322 322 322 323 324 322 324 328 329 329 329 329 331 329 330 334 334 333 331 330 329 327 326 325 326 328
342 342 341 340 339 339 338 337 336 334 334 335 333 332 332 333 334 336 336 336 336 335 335 334 334 334 332 332 332 330 328 327 325 324 322 323 323 323 322 323 323 322 324 328 329 329 328 328 329 328 330 333 333 332 331 329 328 327 325 324 325 328
342 342 340 338 339 339 338 337 335 333 334 333 331 331 332 333 334 335 335 335 336 336 335 335 335 334 331 331 331 329 327 325 323 321 323 323 323 325 323 324 325 323 324 327 328 329 329 328 328 329 330 333 333 332 331 329 328 327 325 323 324 327
341 339 337 337 339 338 337 335 332 332 332 331 331 331 332 333 334 334 334 335 336 336 336 336 336 333 331 330 328 326 325 324 321 322 327 327 326 328 327 328 329 328 328 328 329 331 332 330 330 331 330 332 334 332 330 329 327 327 324 324 325 327
339 338 336 336 337 335 334 332 331 331 331 331 332 332 332 332 334 335 334 334 334 334 335 337 336 333 330 328 326 325 325 325 323 324 329 331 330 331 330 331 331 331 331 331 332 332 332 332 332 332 330 332 334 332 330 329 327 326 324 326 327 328
338 337 336 335 334 332 331 331 330 331 331 331 333 332 331 332 334 335 334 334 333 334 335 336 335 332 330 328 326 326 327 328 328 328 329 331 332 332 332 331 332 332 333 333 332 332 332 332 333 332 331 332 333 332 330 328 326 325 325 327 329 329
337 336 335 333 332 331 331 331 331 332 332 332 332 331 330 331 334 335 334 334 333 333 334 335 334 332 330 328 327 328 330 331 331 330 331 331 332 332 332 332 332 332 333 332 331 331 331 332 333 332 332 333 333 331 330 328 326 325 325 326 328 329
336 334 334 333 331 331 331 331 333 333 332 332 332 331 330 331 334 334 334 334 334 334 334 334 334 333 331 329 329 329 331 333 333 333 332 332 331 331 331 332 332 332 332 331 330 330 331 332 332 331 332 332 332 331 330 328 324 320 321 325 328 329
336 335 334 332 330 332 332 332 332 331 332 333 331 331 332 333 334 333 334 334 335 334 334 334 333 332 331 331 331 331 332 334 334 333 333 332 331 331 331 332 332 331 331 330 329 329 331 331 331 331 331 332 332 332 331 328 322 319 321 324 326 328
336 335 335 333 331 333 333 331 331 329 332 333 330 330 334 334 334 334 334 334 334 334 334 334 333 333 333 332 332 332 332 333 332 332 332 331 331 331 331 331 331 330 329 329 328 328 330 330 330 330 331 331 332 332 332 329 323 320 322 323 323 326
336 335 335 334 333 334 333 331 329 329 330 332 330 331 334 333 333 334 334 334 334 334 334 334 334 333 333 333 332 332 332 331 332 332 332 331 332 331 331 330 330 329 329 328 327 328 329 330 330 330 331 331 331 331 332 329 324 322 323 323 323 326
336 334 334 334 334 334 333 331 330 330 330 331 330 331 333 332 333 335 334 334 333 333 334 334 334 333 332 332 332 332 332 332 333 333 332 332 332 331 330 330 329 328 328 328 327 328 329 329 329 329 329 330 331 331 332 330 324 323 326 324 324 327
335 333 333 334 335 334 332 331 331 332 331 331 332 334 334 334 335 336 335 334 333 333 334 334 334 333 332 332 333 332 332 332 333 333 332 332 332 332 331 330 330 328 328 328 328 329 328 328 328 328 329 329 330 331 331 330 327 328 328 326 324 325
334 333 334 334 335 333 332 332 332 333 332 331 332 334 335 334 335 334 334 334 333 333 334 334 334 333 333 332 333 333 333 333 333 333 332 331 332 332 331 330 329 328 328 329 329 329 329 329 329 329 330 329 330 331 330 330 330 329 329 328 326 325
334 334 334 334 334 333 333 333 332 333 332 331 332 334 334 333 334 333 333 333 333 333 333 334 333 333 333 332 333 334 334 333 333 333 332 332 332 332 331 330 329 328 328 329 329 330 329 329 329 329 330 331 331 331 330 330 329 330 330 329 329 328
334 334 334 334 335 333 333 334 333 333 333 333 334 334 333 333 333 333 333 333 333 333 332 333 333 333 333 333 334 334 334 334 333 332 332 332 332 331 331 329 329 329 329 329 329 329 329 329 329 330 331 331 331 331 330 330 329 329 329 329 330 330
333 334 334 335 334 334 334 335 335 335 335 336 335 334 333 333 334 334 335 334 334 334 333 334 334 334 334 334 335 334 334 333 332 333 332 332 332 331 331 330 329 330 330 330 329 329 330 330 329 330 331 331 330 330 330 329 329 328 328 329 329 329
333 334 334 334 334 334 335 336 336 336 336 336 335 334 334 333 334 334 334 335 334 334 335 334 334 334 334 334 334 334 334 333 332 333 332 332 332 332 331 330 329 329 330 331 331 331 330 330 330 330 330 330 330 330 328 328 328 328 328 328 329 328
334 333 334 334 335 335 335 336 336 337 337 336 334 334 334 333 334 334 334 335 335 335 334 334 334 334 334 334 334 334 333 332 332 333 332 332 332 332 332 330 329 330 330 331 330 331 331 331 330 330 330 330 330 329 328 328 328 329 328 328 328 328
334 334 334 334 335 335 335 335 335 336 335 333 333 332 333 333 334 334 334 335 335 334 334 334 334 334 334 334 334 333 331 331 332 333 333 333 333 332 332 331 329 330 330 330 330 330 331 331 330 329 328 328 330 329 327 327 328 328 328 328 327 326
333 334 334 333 333 334 334 333 333 333 332 332 332 332 332 333 334 334 334 334 334 334 334 334 333 333 333 333 334 332 331 332 332 333 333 332 334 333 332 332 330 330 330 331 331 331 331 330 330 329 329 330 331 330 328 326 326 327 327 327 326 325
332 333 333 333 333 333 333 332 331 330 329 331 332 333 334 333 334 334 333 334 333 333 333 332 332 333 332 333 333 332 332 332 332 332 332 332 333 332 332 332 331 330 330 331 332 331 331 330 329 329 329 330 328 329 331 327 323 323 325 327 325 324
332 332 332 332 333 332 331 330 329 330 331 332 333 333 334 333 333 333 333 333 332 331 332 332 331 332 332 332 332 332 332 332 331 332 333 332 332 332 332 333 332 331 330 331 331 331 331 330 330 329 329 329 327 331 334 328 321 321 322 325 325 324
332 332 331 331 330 329 329 329 329 330 331 331 332 333 332 332 332 332 331 331 330 330 330 330 331 331 332 331 331 331 331 331 331 331 332 332 332 333 332 332 332 331 330 330 330 331 330 330 330 329 329 330 329 331 331 326 325 323 320 322 323 324
332 332 331 329 328 328 328 329 329 330 331 331 331 331 330 329 329 329 329 328 329 328 328 328 328 329 329 329 329 330 330 330 330 330 330 331 332 333 332 332 332 331 330 330 330 331 330 329 330 329 329 330 328 328 327 324 324 323 322 322 321 324
331 331 329 327 328 329 329 329 329 329 330 329 329 329 328 328 328 328 326 326 326 327 326 326 326 326 327 327 327 328 328 329 330 330 329 329 331 332 332 333 333 331 330 330 330 330 330 329 329 329 329 329 327 327 326 323 321 321 322 322 321 322
329 328 326 326 326 327 327 327 328 327 326 326 327 328 328 327 328 328 326 326 326 326 326 326 326 325 326 326 326 326 326 327 328 329 329 329 330 332 332 332 331 330 330 329 329 329 329 328 329 329 329 328 327 326 325 322 319 319 320 321 321 320
328 327 326 324 323 324 324 325 326 325 325 325 326 326 325 324 325 326 327 326 326 325 325 326 326 325 326 325 325 325 325 325 326 327 328 329 330 331 332 331 330 330 330 328 328 329 328 328 328 328 329 328 327 327 325 323 320 319 317 319 320 319
327 327 325 323 324 325 326 326 325 324 324 324 323 323 323 324 324 325 326 325 325 325 325 326 325 325 325 325 325 325 325 325 325 326 328 328 329 330 331 331 329 329 329 328 328 328 328 328 328 328 329 327 326 326 325 323 320 318 317 317 319 319
327 326 325 325 327 328 328 327 326 325 324 322 322 321 323 324 325 325 325 325 325 325 325 325 326 325 325 325 324 324 325 325 326 327 327 328 328 329 329 330 328 328 329 329 328 328 327 328 328 329 329 328 326 326 325 324 320 318 318 317 318 318
328 328 328 329 329 328 328 327 326 326 324 322 322 321 322 323 323 324 324 325 325 325 324 324 324 324 324 325 324 324 325 325 326 327 326 326 327 329 329 329 329 329 330 329 328 327 327 327 328 328 329 327 326 326 326 324 321 318 316 316 317 316
330 330 330 331 329 326 327 326 325 323 321 321 321 319 321 321 322 323 324 324 325 324 323 323 323 324 324 325 324 324 324 324 325 325 325 326 328 329 329 329 329 329 329 329 328 328 327 327 327 328 328 327 327 326 325 324 323 319 314 315 316 316
332 331 330 329 327 324 324 323 322 322 321 321 320 319 320 320 322 323 323 324 324 324 323 322 324 325 324 324 323 323 324 324 324 325 326 327 328 328 328 328 328 328 328 328 327 326 325 325 326 327 327 326 326 325 324 323 323 321 315 312 315 317
332 330 329 329 325 322 322 321 321 322 322 321 320 321 322 321 322 323 323 324 324 323 323 322 324 324 324 324 323 322 323 323 324 326 327 328 328 328 327 327 328 328 327 324 322 320 320 320 322 322 321 320 319 320 319 319 320 322 318 312 314 316
331 329 330 328 324 322 321 322 322 322 322 321 321 322 322 322 322 322 322 323 323 323 323 323 324 324 324 324 323 322 323 322 323 325 326 327 327 327 327 327 327 325 321 317 315 314 314 315 316 315 315 315 315 315 316 316 318 322 319 313 313 314

ECMWFFLT2_925_thetae_030.txt.gz
Theta_e
335 334 337 338 339 338 337 335 333 332 334 336 336 337 337 337 338 338 337 337 337 337 337 336 335 335 335 334 335 335 334 333 332 326 321 321 323 325 325 325 325 325 325 327 330 331 332 333 333 333 332 332 330 328 328 327 326 326 326 328 329 330
336 335 337 339 338 338 338 336 333 333 336 336 337 337 338 338 338 339 338 337 338 337 336 336 335 334 333 333 333 333 331 332 330 324 320 319 320 322 324 325 325 326 325 327 330 330 331 333 333 333 333 332 330 328 328 327 326 325 326 327 329 329
336 336 337 339 338 339 338 335 333 334 337 337 337 337 338 338 338 339 339 338 338 338 337 335 335 333 333 331 330 329 328 330 327 322 321 321 319 320 323 325 326 326 326 328 330 330 331 333 333 333 333 331 329 328 327 327 325 324 326 327 329 330
337 336 337 339 339 339 338 335 334 336 338 338 337 337 337 337 336 337 337 338 338 338 337 335 335 334 333 329 327 328 328 328 326 322 322 321 320 320 321 323 325 327 326 328 329 329 331 333 333 333 332 331 329 328 327 326 325 324 325 328 330 330
337 336 338 340 340 339 338 336 336 338 338 338 337 337 336 335 335 336 336 337 338 338 336 335 335 334 333 327 325 328 328 326 324 322 323 321 321 321 321 322 325 327 327 328 329 329 331 333 333 333 332 331 329 327 327 326 325 325 326 328 330 330
337 337 339 339 339 339 337 337 338 338 338 338 337 335 335 335 336 336 336 337 337 336 335 335 335 333 331 327 324 326 325 324 323 323 323 322 323 323 323 323 325 327 327 328 328 328 331 332 333 333 333 331 329 327 327 326 325 325 327 329 330 331
337 338 340 339 339 338 337 337 338 338 337 337 335 333 334 335 335 336 336 335 335 335 334 333 333 332 331 328 326 325 325 324 324 325 326 326 326 327 326 326 327 327 327 328 328 328 330 332 333 333 332 331 328 327 327 326 325 326 328 330 330 330
338 339 340 339 338 337 336 337 338 337 336 335 333 332 333 335 335 334 334 334 333 333 332 332 332 331 331 329 327 326 325 327 328 328 329 329 329 329 329 329 329 328 329 329 329 329 329 330 332 332 332 330 329 327 327 326 326 327 329 330 330 330
339 339 340 338 338 336 336 337 337 336 335 333 332 332 333 335 334 332 333 333 332 332 332 332 331 329 330 329 328 326 325 328 330 331 331 331 330 330 330 331 330 330 331 330 330 330 329 330 330 332 332 330 329 328 327 326 326 328 330 329 329 329
339 340 339 338 337 337 336 337 336 335 333 332 330 331 332 334 333 331 332 333 332 333 334 333 331 329 328 327 326 326 327 329 331 331 331 331 331 331 331 331 331 331 331 331 330 330 330 330 329 331 332 331 329 328 327 326 327 329 329 328 328 329
340 339 339 337 337 337 336 335 334 333 332 331 329 328 331 333 333 333 333 333 333 334 334 333 332 330 328 326 326 328 330 331 332 332 331 331 330 330 331 331 331 331 330 330 330 330 331 330 330 331 332 331 330 328 327 327 328 328 327 327 327 328
340 339 338 336 336 337 335 334 333 332 331 330 328 327 331 335 335 334 334 334 334 334 334 333 332 331 330 328 326 329 332 333 333 332 331 331 330 330 330 330 330 330 329 329 330 331 331 331 331 332 332 332 330 328 327 326 328 327 327 328 328 328
339 339 338 336 336 335 332 332 331 330 330 330 328 327 332 335 335 336 336 335 335 334 333 333 333 332 331 330 328 330 332 333 332 332 331 330 330 330 330 330 330 329 328 329 330 330 331 331 331 332 332 331 329 327 326 327 328 328 329 329 329 329
338 338 337 335 335 334 331 330 330 329 329 329 328 328 332 332 332 335 336 335 335 334 334 333 333 333 332 332 330 331 332 332 332 331 330 330 330 330 330 330 329 328 328 328 330 330 331 331 331 331 331 330 328 325 325 327 327 328 330 329 329 330
337 337 336 335 334 332 330 329 329 329 329 330 328 330 333 331 330 334 335 334 334 334 334 333 333 333 333 333 332 332 332 331 331 331 331 331 331 331 330 330 329 328 327 328 329 330 330 330 330 331 330 328 326 323 323 324 324 327 329 328 329 329
336 336 335 334 333 331 329 329 328 329 330 330 330 332 333 330 330 334 334 334 334 333 333 333 333 334 334 333 333 332 332 331 331 332 331 331 332 331 330 329 329 328 327 328 329 329 330 330 330 329 328 327 325 323 323 323 324 327 327 327 328 327
336 335 334 333 332 331 329 328 328 330 331 330 332 334 332 331 332 334 334 333 333 333 333 333 333 334 333 333 332 332 331 331 332 332 331 331 332 331 330 330 328 327 327 327 328 329 330 330 331 328 328 328 326 325 325 323 324 325 325 326 326 325
335 334 333 333 332 331 329 329 329 331 332 331 333 334 331 331 333 334 333 333 333 333 332 333 333 333 333 332 331 331 331 331 332 332 331 331 332 331 330 329 328 327 327 328 328 329 329 330 330 329 329 330 328 327 327 326 325 324 324 325 325 324
335 334 333 332 331 330 330 330 331 332 333 332 333 333 331 331 333 333 333 333 334 333 333 333 333 333 333 332 331 332 332 332 332 332 331 331 331 330 329 329 328 328 328 328 328 329 329 329 329 330 330 330 329 329 329 329 329 327 326 327 326 325
334 333 332 331 331 331 331 332 332 332 332 331 332 333 331 331 333 333 333 334 334 333 333 333 333 333 333 333 332 332 333 332 332 332 331 331 331 330 329 328 328 328 328 328 328 329 328 329 329 330 329 329 329 329 329 329 329 329 329 329 329 328
333 333 332 331 331 332 332 332 332 332 331 330 331 332 331 332 334 334 333 334 333 333 333 333 333 333 333 333 333 332 333 333 332 332 331 331 331 329 328 328 328 329 329 328 328 329 329 329 329 329 328 328 327 327 328 329 328 328 328 328 329 329
332 332 332 332 332 332 333 333 331 330 330 330 330 330 331 333 333 334 334 333 333 333 333 333 333 333 333 333 333 333 333 333 332 332 331 331 330 329 328 328 328 329 329 328 329 329 330 330 328 328 327 326 325 325 326 328 329 328 327 328 328 327
332 332 331 331 332 333 333 333 331 330 330 331 331 331 333 333 333 334 335 334 334 334 334 334 334 333 333 333 333 333 333 333 332 331 332 331 330 330 329 328 329 329 329 329 329 329 330 329 328 327 327 328 327 326 326 325 327 328 327 327 326 326
331 331 331 331 332 333 333 332 331 331 332 332 332 333 334 333 333 334 335 334 334 335 334 334 333 333 333 333 333 333 333 332 331 331 332 331 331 330 329 328 329 329 329 329 328 328 329 328 328 327 328 328 325 326 329 324 322 325 327 326 325 325
330 331 332 332 332 333 332 332 332 333 333 333 333 334 334 333 333 333 334 334 334 335 334 334 333 333 333 333 333 333 332 331 330 331 332 331 331 330 329 329 330 329 329 329 328 328 329 328 328 327 327 327 326 329 330 323 320 322 324 326 326 325
331 332 332 332 332 332 332 332 333 333 334 334 333 333 333 332 332 333 333 334 334 334 333 333 333 332 332 332 333 333 331 330 331 332 332 331 331 330 329 329 330 330 329 329 329 329 329 327 328 327 326 327 328 329 327 322 323 322 322 325 326 325
331 331 332 332 332 333 333 333 333 333 332 332 332 332 331 332 332 333 333 333 332 332 333 333 332 332 332 332 332 332 331 331 331 332 332 332 332 331 329 329 330 330 329 329 329 329 329 327 327 328 327 327 327 327 325 323 324 323 322 323 324 324
332 332 333 333 333 333 333 333 332 331 331 331 330 331 331 332 332 332 332 331 331 331 332 332 331 331 331 331 331 331 331 331 332 332 332 332 332 332 330 329 329 329 329 329 329 329 329 328 328 328 328 327 326 326 325 323 323 323 322 322 322 323
332 333 333 333 333 333 333 332 331 331 330 330 330 331 332 332 332 331 330 330 330 330 330 330 330 330 329 330 330 330 331 331 331 331 332 332 332 332 331 330 329 329 329 329 329 329 329 328 328 328 327 327 325 323 323 322 322 322 322 322 322 322
332 333 333 333 333 333 333 331 330 330 329 330 331 331 332 332 331 329 329 329 329 328 329 328 328 328 327 327 328 329 329 330 330 330 331 331 332 332 331 331 331 330 330 330 330 329 330 329 328 328 327 326 324 322 321 320 321 322 321 321 321 321
332 332 333 333 334 334 333 331 329 329 329 330 331 331 332 331 329 328 326 326 326 326 326 326 325 325 325 325 325 326 327 328 329 329 330 330 331 332 332 331 331 331 330 330 329 329 330 329 328 328 327 327 325 323 322 321 320 322 321 319 320 320
332 333 333 334 334 333 332 330 329 329 329 329 330 330 330 329 328 326 325 325 325 325 325 324 324 324 324 324 324 324 325 326 327 328 328 329 330 331 332 331 331 331 330 330 329 329 329 329 329 328 327 327 326 324 324 323 321 322 322 321 321 319
332 333 333 333 333 333 331 330 329 330 329 327 328 328 327 327 326 325 325 325 325 325 325 324 324 324 324 324 324 323 323 324 326 327 327 327 328 329 330 331 330 330 329 329 329 328 328 329 328 328 328 327 325 325 324 322 321 321 322 322 321 318
332 332 332 332 332 331 330 329 329 329 328 326 326 326 326 325 325 325 325 324 324 324 324 324 324 324 324 323 323 323 323 324 326 326 326 326 327 328 329 330 329 328 329 328 328 327 328 328 328 328 328 328 326 325 323 321 321 321 321 321 321 319
332 331 331 330 330 328 328 328 328 329 327 326 326 326 326 325 325 325 324 323 324 324 324 324 324 324 323 323 323 324 324 325 326 326 326 326 325 326 328 329 329 328 328 328 328 327 327 327 327 327 327 327 327 325 322 321 320 320 321 321 321 321
331 329 327 327 327 327 327 327 328 329 328 327 326 326 326 325 325 325 324 324 324 324 324 324 323 324 323 323 323 323 324 325 325 325 325 325 325 326 327 328 329 328 328 328 328 327 327 326 326 327 327 327 328 327 324 322 320 320 321 320 320 320
328 326 325 326 327 327 327 327 328 328 327 326 325 324 324 325 325 324 324 324 323 323 322 322 323 323 323 323 322 322 323 323 324 324 325 326 327 327 328 328 328 328 328 328 328 327 327 326 326 327 327 328 327 327 325 322 320 320 320 320 319 319

ECMWFFLT2_925_thetae_033.txt.gz
Theta_e
337 337 338 338 339 336 333 332 333 334 335 335 336 336 336 336 335 334 334 334 334 334 335 337 337 336 335 335 335 334 333 332 331 331 331 331 331 330 327 326 327 328 330 332 333 333 333 333 332 331 330 328 328 328 327 329 331 330 330 331 330 328
335 337 338 338 339 338 336 334 335 335 336 336 336 337 337 337 337 336 337 337 337 336 337 339 338 336 335 335 334 333 333 331 331 330 330 330 331 330 327 326 326 327 330 332 332 333 333 333 332 331 330 328 327 328 327 328 331 330 330 331 331 330
335 337 338 338 339 338 336 335 336 336 337 337 337 338 338 338 338 337 338 338 337 336 336 337 336 335 335 335 333 331 331 331 330 329 327 327 328 328 327 327 326 327 330 331 332 333 334 334 333 332 330 328 327 327 327 329 331 330 330 331 331 331
337 338 338 339 339 337 336 335 336 336 337 337 337 339 338 338 339 338 338 338 337 336 335 335 335 335 334 333 330 328 330 330 327 325 324 323 324 325 326 326 326 327 329 331 332 333 334 336 335 333 330 328 327 327 327 330 331 330 330 331 331 330
338 338 338 339 339 337 336 335 336 336 337 338 338 339 339 339 339 339 338 337 337 336 335 335 334 334 334 332 328 329 329 326 324 323 323 322 322 323 325 326 326 327 329 330 331 332 334 336 335 333 330 328 327 327 329 331 330 330 331 331 331 330
338 338 338 339 338 337 336 335 336 337 337 338 338 339 339 339 339 339 338 338 337 336 335 335 335 334 333 330 328 329 327 323 323 322 322 323 322 322 324 327 326 327 329 330 331 332 333 334 334 332 330 329 327 327 330 331 331 331 331 332 331 330
339 338 338 339 339 338 337 336 336 337 338 338 338 338 338 338 338 338 338 338 338 336 336 335 335 332 331 330 329 327 324 323 324 323 323 325 325 324 325 327 327 327 329 329 330 332 333 333 333 332 331 329 328 328 330 331 331 331 331 332 330 330
339 338 338 338 339 339 337 337 336 337 338 337 337 337 336 337 337 337 338 339 338 337 336 336 335 331 330 330 328 325 324 325 326 325 326 328 327 327 327 327 327 328 329 329 330 332 333 333 333 332 331 329 329 329 329 330 331 331 331 331 331 330
339 338 338 338 339 339 337 337 337 337 338 337 337 336 336 336 337 337 338 337 337 336 336 335 334 332 330 328 326 325 326 327 329 329 329 330 330 330 330 329 329 329 329 329 329 331 332 333 332 332 330 329 330 329 328 329 330 331 330 330 331 329
340 339 338 338 339 338 338 337 337 338 338 337 335 335 337 337 337 336 336 335 335 334 334 333 332 331 331 327 325 327 328 330 331 331 331 331 331 331 331 330 330 329 329 329 330 330 332 332 332 331 331 330 330 329 328 330 330 330 330 330 330 329
339 339 339 339 339 338 337 336 336 338 337 335 334 335 337 336 335 334 334 334 334 333 333 332 330 330 330 328 326 327 329 331 331 331 331 331 331 331 331 330 330 330 329 330 330 330 330 331 332 331 331 330 329 329 330 330 330 329 330 330 329 330
339 339 338 338 338 337 337 336 336 336 334 332 332 333 333 334 334 332 332 333 334 334 334 332 330 329 328 327 327 328 330 331 331 330 330 331 331 330 331 330 330 330 330 330 330 330 329 330 332 332 331 330 330 331 331 329 328 329 329 329 329 330
339 338 338 337 337 336 336 336 336 334 332 331 330 329 330 333 333 331 332 333 334 335 335 334 332 331 329 327 327 330 331 331 330 330 330 331 330 330 330 330 329 329 330 330 330 331 330 330 332 332 332 331 330 331 331 329 328 328 329 330 331 331
338 338 336 335 336 336 336 336 334 332 332 330 329 327 327 331 334 333 333 333 333 334 335 334 333 332 331 329 328 330 330 331 331 331 331 331 331 330 330 329 329 329 329 331 332 332 331 332 333 332 332 331 329 328 328 328 327 327 329 329 331 331
338 337 334 334 335 335 335 334 332 332 331 330 328 327 327 330 333 333 333 334 334 333 334 334 334 333 332 331 330 331 331 331 331 331 331 331 331 330 329 329 329 328 329 332 333 332 332 333 333 331 331 329 326 325 325 325 325 327 329 329 330 331
338 336 333 334 335 334 334 332 331 330 330 330 327 327 329 331 332 333 334 334 333 332 333 334 334 333 333 332 332 332 332 331 331 331 331 331 331 330 330 329 328 327 329 332 333 332 332 332 332 330 329 326 324 324 325 325 326 328 330 330 330 331
338 335 332 333 334 333 332 330 330 329 329 330 328 329 333 332 330 332 334 334 332 333 334 334 334 334 333 333 332 332 332 331 332 332 331 332 332 330 330 329 328 327 330 332 332 332 332 331 330 328 326 324 323 325 325 326 329 329 329 330 329 329
337 334 331 331 333 332 330 330 329 329 330 330 330 332 334 332 330 331 334 334 333 334 334 334 334 333 333 332 332 332 331 331 332 333 332 332 332 331 330 329 328 328 330 332 331 332 332 330 328 327 327 326 326 325 325 326 329 328 328 329 328 328
335 332 331 331 331 330 330 330 330 331 331 331 332 334 334 332 331 333 334 334 334 334 334 333 333 333 332 332 331 331 331 331 332 332 332 332 332 331 330 329 328 329 330 331 331 332 331 329 329 329 329 329 328 328 326 327 328 327 328 328 327 327
334 333 332 331 331 331 331 331 331 332 333 332 333 334 334 333 332 333 334 334 334 334 333 332 333 332 332 332 332 332 332 332 332 332 332 332 332 331 330 330 330 330 330 330 331 331 331 330 330 330 329 329 329 329 329 329 329 329 328 329 328 328
334 333 332 332 332 331 331 331 331 332 333 333 333 334 334 332 332 333 334 334 334 334 333 332 333 332 332 332 332 332 332 332 332 332 332 332 332 331 330 331 331 330 330 330 330 331 330 329 329 329 328 329 329 329 329 329 329 329 329 329 329 328
334 333 332 332 332 331 331 331 331 332 333 333 333 334 334 332 331 333 334 334 333 333 333 332 332 332 332 332 332 332 333 333 332 332 332 331 331 331 330 331 331 330 330 329 330 330 329 329 329 328 328 328 327 327 327 328 328 329 328 328 329 328
334 333 332 331 331 332 331 332 332 332 332 332 332 333 333 332 332 333 333 333 333 333 333 333 332 332 332 332 332 332 333 333 332 332 331 331 331 331 330 331 330 330 330 329 330 329 329 329 330 329 328 328 327 326 326 327 327 327 327 327 327 328
334 332 331 329 330 332 332 332 332 332 332 332 332 332 333 333 333 333 334 334 334 333 333 333 333 333 333 333 333 333 333 333 332 332 331 331 331 331 331 331 331 331 330 330 330 330 329 329 329 329 329 329 328 328 327 326 326 325 326 327 326 327
333 332 331 330 330 331 332 332 332 332 332 332 332 332 333 333 333 334 335 335 334 334 334 334 333 333 333 333 333 332 332 333 332 332 332 332 331 331 331 331 331 331 331 330 330 331 330 328 328 329 329 329 328 329 327 325 326 325 325 325 325 326
332 332 332 331 331 331 332 332 332 332 333 333 333 333 333 334 333 334 334 334 334 333 333 333 333 333 332 332 332 332 332 332 332 331 332 332 331 331 331 331 331 330 330 330 331 332 330 328 327 327 327 328 328 328 327 325 326 326 325 325 324 325
333 332 332 331 331 331 332 333 333 333 334 334 333 333 333 333 333 333 333 334 333 333 332 333 333 333 332 332 332 332 331 331 331 331 332 332 331 331 331 331 330 330 330 329 330 332 331 328 328 327 326 327 327 328 327 326 326 326 325 324 324 324
332 331 331 330 331 332 333 333 333 333 334 334 334 333 333 332 333 333 333 333 333 333 333 333 333 332 332 332 332 332 331 331 331 331 331 331 331 331 330 330 330 330 329 329 329 332 331 329 329 328 327 327 327 327 326 327 327 326 325 324 323 324
331 330 330 330 331 332 333 333 333 333 333 333 332 332 332 332 333 333 333 332 332 332 332 332 332 331 331 331 331 331 331 331 331 331 331 331 331 331 330 329 330 330 329 329 329 330 330 328 328 328 327 327 326 326 325 326 327 327 326 324 323 323
330 330 330 331 332 333 333 333 333 332 332 331 331 331 332 333 333 333 332 331 331 332 331 331 330 330 330 330 330 331 331 331 331 331 331 331 331 331 330 329 329 330 330 329 328 329 329 328 328 328 327 327 326 325 325 326 327 327 327 326 324 323
329 329 330 331 332 333 333 333 332 331 330 330 330 331 333 333 332 331 331 330 330 330 329 329 328 327 328 328 328 329 330 331 331 331 331 331 331 331 330 329 329 328 329 329 328 328 328 328 328 327 327 327 326 326 326 326 326 326 326 327 325 323
329 330 330 332 332 333 333 333 332 330 330 330 330 331 332 331 330 329 328 328 328 328 327 326 326 325 325 325 325 326 327 328 330 331 331 330 331 332 331 330 329 328 327 328 328 328 328 329 329 328 329 328 325 325 327 326 326 326 327 327 325 324
330 331 331 332 333 333 333 333 331 330 329 329 330 330 330 329 327 326 326 326 326 326 325 325 324 324 324 324 324 324 325 326 328 330 330 329 331 332 331 330 330 329 328 328 328 328 328 329 329 329 330 328 325 324 325 325 325 326 327 327 326 324
330 331 331 332 333 333 333 331 329 329 329 328 328 328 328 327 324 323 323 323 324 324 324 324 324 324 324 324 323 323 323 324 327 329 328 328 329 331 331 331 330 329 329 329 328 328 328 329 330 330 330 329 327 325 324 323 323 325 326 326 326 324
331 331 332 332 334 333 332 330 329 329 328 325 325 325 325 324 323 323 323 323 323 323 323 324 324 324 323 323 323 324 324 324 326 327 327 327 328 329 330 331 330 329 329 329 329 328 328 328 328 329 329 329 328 326 324 322 322 323 325 325 325 324
331 331 332 333 334 332 331 329 328 329 328 325 324 324 323 323 323 323 323 323 323 323 324 324 324 324 323 323 324 324 325 325 326 327 326 326 326 327 328 329 330 329 328 328 328 327 327 327 327 327 328 328 328 327 324 322 322 322 324 324 324 323
330 331 333 333 332 332 331 329 328 329 328 325 324 324 324 324 324 324 324 323 323 324 324 323 323 324 323 323 323 323 323 324 325 325 325 325 325 326 327 328 329 328 327 328 328 327 327 327 326 327 327 327 328 328 325 322 321 321 322 322 322 322

ECMWFFLT2_925_thetae_036.txt.gz
Theta_e
342 340 341 341 337 332 327 326 327 327 328 328 329 330 332 332 332 332 332 332 333 337 339 337 338 336 334 333 334 335 333 331 332 332 332 332 331 329 329 329 330 332 333 333 333 333 332 331 330 329 327 330 333 333 333 333 332 332 330 329 328 326
342 341 342 341 340 336 329 329 332 331 330 330 331 333 335 335 334 333 331 333 336 340 340 338 339 338 336 335 334 333 331 331 331 332 332 332 330 328 328 329 329 331 333 333 333 334 333 332 331 328 329 333 334 332 332 331 331 331 331 330 328 327
342 342 342 341 341 338 333 335 338 337 335 335 336 336 338 338 338 337 334 336 339 341 340 338 338 338 337 335 334 332 330 330 332 332 332 332 330 327 327 327 328 331 332 333 335 336 335 335 332 329 331 334 334 332 332 331 330 330 331 331 329 329
342 342 343 342 341 340 338 339 339 339 339 339 339 338 339 339 339 338 337 336 338 340 339 337 337 337 337 335 333 331 330 331 331 330 330 331 330 327 326 327 327 330 332 334 336 337 337 337 335 332 334 335 334 333 332 331 330 330 331 331 331 331
342 342 343 343 342 341 341 340 339 340 341 339 338 338 339 339 339 339 338 336 337 340 338 336 336 336 336 335 333 333 331 332 331 329 329 331 330 327 328 328 328 330 332 334 336 337 337 337 336 335 334 333 333 333 332 331 331 331 331 331 332 332
341 342 343 343 343 342 342 342 341 341 341 339 337 337 338 338 339 339 339 337 337 339 338 336 337 336 337 335 333 333 333 333 332 330 330 330 330 329 330 330 330 331 333 334 335 337 338 337 336 334 333 333 333 333 332 332 332 332 332 331 331 331
342 342 342 342 343 342 341 341 341 341 340 339 338 338 338 338 340 340 338 337 337 338 338 337 337 337 336 335 333 333 333 333 331 331 331 331 330 330 330 330 331 332 332 333 335 337 337 337 335 333 332 332 333 333 333 332 332 333 332 331 331 331
342 342 343 342 342 341 341 341 341 340 340 340 340 339 339 339 340 339 337 337 337 337 337 337 337 336 335 334 334 333 332 333 332 332 333 332 331 331 331 331 331 330 331 332 335 337 337 336 334 333 332 332 333 334 333 333 333 333 333 333 331 330
343 342 342 342 341 341 341 342 341 340 340 340 341 341 340 340 340 339 338 339 338 337 337 337 336 335 335 334 333 332 331 332 333 333 333 332 332 331 331 332 331 330 330 332 334 335 335 335 334 333 333 333 334 334 334 334 332 333 333 334 332 330
343 342 341 342 342 341 342 342 342 341 340 339 339 340 340 340 339 339 339 338 338 338 337 337 336 335 335 334 332 332 332 332 333 333 333 333 333 332 332 332 332 331 331 332 334 335 335 335 334 333 333 333 334 334 334 333 332 332 333 333 332 330
343 341 341 342 341 342 342 340 340 340 339 338 338 337 337 337 337 338 338 337 337 339 338 337 336 335 334 333 332 332 332 333 333 333 334 333 333 333 332 332 332 331 331 332 334 334 334 333 333 332 333 334 334 335 334 333 332 332 333 333 332 331
341 340 341 342 342 342 340 337 338 339 338 338 336 334 334 335 336 336 337 337 337 336 335 333 334 335 333 331 332 333 332 333 333 333 334 333 333 334 333 333 334 333 333 333 334 334 333 332 332 332 332 334 334 334 334 333 332 332 332 333 333 333
340 339 339 340 340 339 338 337 337 338 337 336 334 333 333 334 335 337 336 335 335 333 331 330 331 333 333 332 332 332 333 334 334 333 334 333 334 334 334 334 335 335 335 334 334 334 333 332 332 332 333 334 335 334 333 332 332 332 332 332 332 332
339 338 338 338 338 338 337 337 336 337 336 335 333 331 332 332 333 337 336 334 334 332 330 331 331 331 331 332 331 332 333 334 333 333 334 334 334 334 334 334 335 335 335 334 334 333 333 332 333 333 334 335 335 334 333 332 332 332 332 332 332 331
339 338 338 338 338 337 337 336 336 336 334 334 332 329 330 331 331 335 336 335 335 333 331 332 332 331 330 330 332 334 334 334 333 333 334 334 334 335 335 335 334 334 335 334 333 333 333 333 334 335 335 334 333 333 333 332 332 332 331 332 331 331
339 338 338 337 337 337 336 336 336 335 334 333 332 329 328 331 332 334 335 335 335 333 333 333 333 332 330 331 334 334 334 334 333 333 333 334 335 335 335 335 335 335 335 334 333 333 333 334 335 334 334 333 332 332 332 331 331 331 331 331 331 331
338 338 337 336 336 337 336 336 335 334 334 332 331 329 328 331 334 334 335 336 334 333 333 333 333 331 331 333 335 334 334 334 334 334 334 334 335 335 335 335 336 336 335 334 334 333 334 334 334 333 332 332 331 331 331 332 331 331 331 331 331 331
337 337 336 335 335 335 336 335 334 333 332 331 330 330 330 332 334 334 336 336 334 334 334 334 333 332 332 334 334 333 333 334 334 335 335 335 335 335 335 335 336 336 335 334 334 334 334 333 333 332 332 331 330 330 331 331 331 331 331 331 331 331
335 336 335 334 333 334 335 334 333 332 331 330 330 331 333 333 333 335 336 335 334 334 334 334 333 333 334 334 333 333 334 334 335 336 335 335 335 335 336 335 335 335 335 334 333 333 332 332 332 332 331 330 330 330 331 331 331 331 331 331 331 330
334 335 334 333 333 333 333 332 332 332 331 331 332 333 334 334 334 335 335 334 334 334 333 333 332 332 334 334 334 334 334 334 335 336 335 335 334 335 336 335 335 334 334 334 333 332 331 332 332 332 331 331 331 330 330 331 331 331 331 331 330 330
334 334 332 332 333 333 333 332 332 333 333 332 332 333 335 335 335 335 335 335 336 334 332 332 332 333 335 335 335 335 334 335 335 335 335 335 334 335 335 335 334 334 333 334 334 332 332 333 331 331 330 329 329 330 330 331 330 330 330 331 330 330
334 332 330 331 332 333 333 332 332 333 332 333 333 334 335 335 335 336 336 336 336 335 334 334 334 335 336 336 335 336 336 336 335 335 336 335 334 334 334 334 334 333 333 334 334 333 333 333 332 331 329 328 329 329 329 330 330 330 330 331 331 330
335 332 330 330 331 332 332 333 334 333 332 333 334 334 334 335 335 336 336 336 336 336 336 336 336 336 336 335 335 335 335 336 335 335 335 335 335 334 334 334 333 333 333 333 334 333 332 333 333 331 330 329 329 329 329 329 330 330 330 330 330 330
335 332 330 330 330 331 332 333 334 334 333 334 335 335 335 335 335 335 336 336 336 336 336 336 336 335 335 335 335 334 335 335 335 335 335 335 335 334 334 334 333 333 333 333 333 332 332 333 332 330 330 329 329 329 329 329 329 328 328 328 328 328
335 333 332 330 330 331 333 333 334 334 334 335 335 335 336 336 336 335 336 336 335 335 335 335 335 334 334 335 335 334 334 334 334 334 334 335 335 334 334 334 334 334 333 333 333 332 332 333 332 329 328 328 328 330 329 328 328 328 327 327 327 327
335 334 333 332 331 332 333 334 334 334 333 334 335 335 335 336 336 335 335 335 335 335 335 335 335 335 335 334 334 334 334 333 333 333 334 334 334 334 334 333 334 333 333 333 333 333 332 333 332 330 330 331 330 329 328 327 329 329 327 327 327 327
335 334 334 333 332 333 334 333 333 333 333 334 335 335 335 336 336 335 335 335 335 335 335 335 335 334 334 334 334 334 334 333 333 333 334 334 334 334 333 333 333 333 333 333 332 331 331 332 332 330 332 334 332 328 327 327 329 328 327 327 327 327
335 334 334 333 332 333 334 334 334 335 335 335 335 335 335 336 335 335 335 335 334 334 334 334 333 333 334 334 334 334 333 334 333 333 334 334 334 334 333 332 333 334 333 333 332 330 330 331 328 328 331 333 332 330 328 329 329 327 327 326 325 325
334 334 334 333 333 334 334 335 335 336 336 335 335 335 334 334 334 334 334 334 333 333 333 333 332 332 333 333 333 333 333 334 333 333 333 333 333 334 334 334 334 334 333 334 333 331 330 330 329 330 332 332 331 330 329 330 329 327 327 326 324 324
334 334 334 333 333 334 335 335 336 337 336 335 335 334 334 334 334 333 333 333 333 332 332 332 332 332 332 331 332 333 334 334 334 333 333 333 333 334 334 334 334 334 333 334 333 332 332 332 332 333 332 330 330 329 329 330 329 327 327 327 325 324
333 333 333 333 334 334 335 335 336 337 337 336 335 334 334 334 333 333 332 332 332 333 333 332 332 331 331 331 331 332 333 334 334 333 333 333 334 334 334 334 334 334 334 334 333 332 333 333 333 333 331 329 330 330 329 330 329 328 327 327 326 324
333 333 333 333 334 334 335 336 336 337 336 335 335 334 334 334 333 332 332 332 332 333 333 332 331 330 330 330 330 330 331 333 334 333 333 333 333 333 333 334 333 333 333 333 333 332 333 333 332 332 330 328 329 328 327 327 327 327 327 327 326 325
332 332 333 333 334 334 335 336 336 336 335 334 334 334 334 334 333 332 332 332 332 332 331 331 330 330 329 329 329 329 330 331 332 333 333 332 332 332 332 333 333 333 333 333 332 332 332 333 332 332 330 329 329 328 327 326 326 327 327 326 326 326
332 333 333 333 334 334 335 335 335 335 333 333 333 333 333 333 332 332 332 331 330 330 329 329 329 328 328 328 328 328 329 329 331 332 333 332 332 332 332 332 332 332 332 332 332 332 332 332 332 331 329 328 329 329 328 327 327 327 327 326 326 325
333 333 333 333 334 334 334 335 335 333 333 333 333 332 332 332 331 330 330 329 329 328 328 328 328 328 328 328 327 327 328 329 329 330 332 333 332 332 332 332 331 331 332 332 332 332 332 332 331 331 329 327 327 328 327 326 327 327 326 326 326 324
333 333 333 333 334 334 334 334 334 333 333 332 332 331 331 330 330 329 329 329 328 328 328 328 327 327 327 327 327 327 327 329 329 329 330 331 332 332 331 331 331 331 331 331 332 333 332 331 330 330 329 328 327 327 327 326 326 326 326 325 325 323
333 333 333 333 333 333 334 334 333 333 332 331 330 330 330 330 329 328 328 328 328 328 328 327 327 327 326 326 326 326 326 328 329 329 329 329 330 330 331 332 331 330 330 331 332 332 330 329 329 330 331 330 328 327 327 326 326 326 325 325 325 323

ECMWFFLT2_925_thetae_042.txt.gz
Theta_e
341 342 340 339 336 337 336 335 337 337 338 338 339 339 339 338 338 339 338 339 337 337 337 335 333 332 334 336 337 336 336 335 335 334 334 335 335 333 332 333 334 333 332 331 328 327 331 332 332 333 333 334 333 330 330 330 329 327 326 325 323 323
343 343 342 340 337 336 335 336 338 337 338 338 338 337 338 338 338 338 339 338 336 338 339 337 334 332 333 333 333 333 333 332 332 333 334 334 335 333 332 332 333 333 332 332 328 329 332 332 333 333 334 334 334 332 332 331 329 327 326 327 328 327
343 342 342 341 339 335 334 337 338 337 338 338 336 335 336 339 338 337 337 336 336 339 339 338 337 336 336 334 333 332 332 330 329 330 332 334 334 333 332 332 333 333 333 332 331 330 331 332 333 334 334 335 334 332 332 331 330 329 328 328 329 328
342 342 341 341 340 336 334 339 339 338 339 336 334 336 337 338 337 336 337 337 337 339 339 338 338 338 338 336 334 333 332 331 330 331 331 332 333 331 332 332 332 333 333 333 335 334 333 334 334 335 336 334 332 331 331 332 330 331 330 330 331 328
342 342 341 340 340 337 336 339 339 339 339 336 335 337 337 336 336 336 337 337 337 338 338 338 337 337 337 335 334 333 331 331 333 332 330 331 331 330 331 332 332 333 333 335 337 336 335 335 333 336 336 334 333 332 332 332 332 332 332 332 331 330
341 342 341 338 339 338 338 338 338 338 338 337 337 338 337 336 336 336 335 336 337 337 338 336 337 336 335 335 334 332 330 330 333 332 331 332 331 330 331 332 332 333 334 336 337 336 336 335 334 335 334 333 333 332 333 332 333 333 332 332 331 331
340 340 340 337 337 337 337 338 337 337 337 338 338 338 337 337 337 336 336 335 336 337 337 335 335 336 335 336 334 333 332 333 334 332 332 333 332 331 331 332 332 333 334 334 335 335 335 334 333 334 333 333 333 332 333 333 333 333 332 332 331 331
340 339 339 338 337 337 338 338 338 337 337 337 337 338 337 336 337 336 335 335 335 336 336 336 335 335 335 335 334 334 334 334 334 332 333 334 333 332 331 332 332 333 333 333 334 334 335 334 332 333 332 332 332 332 334 333 333 333 332 332 331 331
340 339 338 339 337 338 339 338 338 338 338 338 337 339 338 336 335 336 336 335 336 335 335 335 334 335 335 334 334 334 334 333 333 332 332 333 333 332 331 332 332 332 332 332 333 333 334 333 332 332 331 331 332 332 333 333 332 333 333 332 331 330
340 340 338 339 339 339 339 338 338 339 339 339 338 339 338 335 334 336 337 336 336 336 335 334 334 334 334 333 333 334 334 333 333 333 332 332 332 332 331 332 332 332 332 331 332 333 333 332 331 331 331 331 331 331 333 334 333 334 334 331 330 330
340 339 338 339 339 339 338 338 339 339 339 339 339 339 338 337 336 337 337 336 336 335 334 334 334 335 334 333 334 333 333 333 333 333 332 333 332 332 332 332 333 333 331 330 332 333 332 332 331 330 331 331 331 332 333 334 334 334 334 331 330 330
339 338 338 339 338 337 338 338 339 340 339 338 337 338 338 338 337 337 337 335 335 334 334 335 334 335 333 333 334 333 333 333 333 333 333 334 333 333 332 332 333 332 331 331 334 334 332 332 332 331 331 331 331 331 332 333 334 334 333 332 331 328
340 339 338 340 337 336 337 338 339 339 339 338 337 337 338 338 338 338 337 335 335 334 334 334 334 334 333 333 333 333 333 333 333 334 334 334 334 333 333 333 331 331 332 332 333 334 333 331 332 331 330 331 330 330 333 334 334 334 333 332 331 329
341 339 338 340 339 337 338 338 339 338 338 337 337 337 337 338 338 337 336 335 335 335 335 334 334 333 332 332 333 332 332 334 335 335 335 334 334 334 334 333 332 334 333 332 332 332 332 331 330 331 331 331 330 330 332 333 333 334 333 332 332 331
340 339 337 340 341 338 338 339 339 338 337 336 335 336 336 337 337 336 336 335 335 336 335 335 334 332 330 331 331 331 333 335 335 335 335 335 334 334 335 334 334 334 332 332 332 332 333 331 330 332 331 330 330 329 331 333 333 333 333 332 332 331
340 340 338 340 340 339 339 339 339 338 337 336 334 335 335 336 337 336 336 336 336 336 335 335 334 332 332 332 332 333 335 335 334 334 335 334 334 334 334 334 333 334 333 332 332 333 335 333 331 331 331 331 330 329 332 333 332 331 332 332 331 331
341 340 339 339 339 339 339 338 338 337 336 336 334 335 335 336 336 336 336 335 335 335 334 334 333 332 334 333 334 336 335 333 332 334 334 333 335 334 333 333 332 334 335 332 330 333 334 333 332 331 331 331 330 330 331 332 331 331 331 331 330 330
340 340 340 340 339 338 339 338 338 336 336 336 335 334 334 335 335 335 335 334 332 331 331 331 331 332 335 334 335 336 334 333 333 334 333 333 335 334 333 333 333 334 334 331 332 333 332 332 332 331 331 331 331 331 331 331 331 331 330 330 330 330
339 340 340 341 339 339 339 338 337 336 336 335 334 333 333 334 335 334 335 334 331 329 329 331 331 332 333 333 334 335 335 335 334 334 334 334 335 333 333 333 333 333 333 332 333 333 332 331 331 331 331 332 332 332 331 331 331 331 330 329 329 329
340 340 340 340 339 339 339 336 336 336 335 334 333 333 333 333 334 334 334 335 334 332 331 330 331 332 332 333 334 334 335 335 334 334 334 335 334 332 333 332 332 333 333 332 334 333 331 331 331 331 331 331 331 331 331 331 330 330 330 330 330 330
341 340 340 340 338 338 339 337 337 336 335 334 333 334 335 333 333 333 334 335 334 333 332 331 333 333 333 335 335 335 335 335 334 334 334 335 334 332 332 332 332 333 333 333 334 333 331 331 331 331 331 331 331 330 330 330 330 330 330 330 329 329
340 340 340 339 338 337 338 338 337 336 334 334 334 335 335 334 333 333 334 334 333 332 332 332 333 333 333 335 335 335 334 332 332 334 334 334 333 332 333 334 333 332 334 334 333 332 331 331 332 332 331 331 331 331 331 330 330 330 329 329 329 329
340 339 339 338 338 338 337 337 335 335 335 335 335 334 334 333 333 334 334 335 333 330 330 331 332 332 333 334 333 333 331 328 329 332 333 333 332 332 333 334 333 332 333 333 332 331 331 331 332 332 331 331 331 331 331 331 331 330 329 329 330 329
339 339 338 338 338 338 337 336 335 335 336 335 335 335 334 333 333 334 335 335 333 331 329 330 332 332 332 333 332 331 330 328 329 332 334 333 332 331 332 333 332 332 333 333 333 331 331 332 332 331 331 332 331 331 331 332 331 330 329 330 329 328
339 338 338 338 338 337 337 336 336 336 336 335 334 333 333 333 334 334 333 333 333 332 331 330 332 334 333 331 330 330 330 330 330 332 334 334 332 330 330 331 331 331 332 333 333 333 332 332 332 331 332 332 331 332 332 331 331 330 329 329 328 327
339 338 339 338 337 337 337 336 336 336 335 335 334 333 333 333 333 333 333 332 333 333 332 332 332 334 333 331 331 331 331 331 332 333 334 334 333 330 329 330 331 331 331 332 333 333 332 331 332 332 331 332 332 333 331 330 332 331 329 328 327 327
340 339 338 338 337 337 337 336 335 335 335 335 335 334 333 333 333 333 333 332 333 333 333 333 333 333 333 332 331 331 332 333 333 334 334 334 333 331 330 330 332 331 331 332 332 332 330 330 331 333 332 332 331 331 330 330 331 330 330 330 328 327
339 338 337 337 337 336 337 336 336 335 335 335 334 334 333 332 332 332 332 331 332 333 333 333 334 333 332 332 332 332 333 334 334 334 334 334 333 332 331 330 331 332 332 332 332 331 331 330 331 332 332 332 331 331 330 329 329 329 330 331 329 327
339 337 336 336 337 336 336 336 336 335 335 335 335 334 333 332 331 331 332 332 332 333 333 334 334 333 333 333 332 333 334 334 333 333 333 333 332 333 332 330 331 333 333 332 332 333 332 331 330 331 332 330 330 330 329 330 329 328 330 330 329 328
338 337 336 336 337 337 337 337 336 335 336 335 335 334 333 332 331 331 331 331 332 333 333 333 334 334 334 334 334 333 333 333 333 334 334 332 332 332 331 331 331 333 333 332 332 332 332 331 330 331 331 329 329 329 329 331 330 328 329 329 329 328
338 338 337 336 337 337 337 337 336 336 336 333 333 334 333 332 331 331 331 331 332 333 333 334 334 334 335 334 334 334 334 334 334 334 334 332 331 331 332 331 331 332 333 333 331 331 331 331 330 331 330 329 328 328 329 330 329 328 327 328 329 328
339 338 338 337 337 337 336 336 336 337 336 333 333 335 333 331 332 332 331 332 332 331 332 333 334 334 334 334 334 335 335 334 334 334 334 332 331 331 332 333 332 333 333 332 331 331 330 330 331 332 331 329 328 328 328 328 327 327 326 326 328 327
339 338 338 338 337 337 337 337 337 336 335 333 334 335 333 331 332 332 331 332 332 331 332 333 333 333 332 333 334 335 335 335 334 334 334 333 331 331 332 333 333 332 332 332 331 331 330 330 331 332 331 328 327 328 328 327 327 326 326 326 327 326
339 338 338 338 337 337 337 337 336 334 332 333 333 334 334 334 333 332 331 332 333 333 333 333 332 332 332 332 331 333 334 334 334 334 334 333 332 331 331 332 332 331 331 332 331 330 330 330 330 330 329 328 329 329 328 327 326 326 326 326 327 327
338 338 338 338 337 337 337 337 337 334 332 332 332 333 334 333 333 332 332 333 333 333 332 331 331 331 331 331 331 331 332 332 334 334 334 334 333 332 332 331 331 330 330 331 330 329 329 329 329 330 330 329 330 330 329 327 326 326 326 325 326 326
338 337 338 338 338 338 337 337 337 335 332 330 332 333 333 332 332 332 332 332 332 331 331 330 331 330 330 330 330 331 331 331 332 332 333 333 332 332 332 330 330 331 330 331 331 329 328 329 329 330 330 331 330 330 329 327 327 327 326 325 325 327
338 338 338 338 338 337 337 336 336 335 333 332 332 332 332 332 332 332 331 331 331 331 331 330 330 330 329 329 329 329 329 330 330 331 332 333 331 331 331 330 330 331 330 330 330 329 328 329 330 330 330 331 330 330 329 329 329 329 327 325 325 326

ECMWFFLT2_925_thetae_045.txt.gz
Theta_e
341 341 341 341 341 341 340 339 338 337 337 339 340 340 341 341 341 340 338 337 337 337 338 338 338 338 338 337 337 337 337 336 335 333 333 333 333 332 332 332 331 328 327 328 329 331 332 333 333 333 333 333 331 330 329 327 320 314 316 320 324 327
341 341 340 340 340 339 339 337 336 337 338 339 339 339 339 340 340 339 338 337 336 337 336 337 337 337 338 338 337 337 337 336 334 333 333 334 333 333 332 332 331 329 328 331 331 331 332 332 333 334 334 334 331 328 327 327 320 316 322 324 325 328
340 339 337 337 338 338 337 336 335 337 338 338 338 338 338 339 338 338 338 338 337 337 336 335 334 335 336 337 337 336 336 334 333 333 333 334 333 332 333 332 332 330 328 330 331 331 332 333 334 335 335 335 332 327 327 329 323 319 323 326 327 329
337 335 335 335 336 336 336 336 336 337 337 337 337 337 338 338 338 338 340 338 337 338 337 334 333 335 334 334 334 333 333 332 330 331 333 334 333 332 332 332 332 331 329 329 331 332 333 334 335 334 334 335 331 328 329 329 326 323 325 325 325 327
335 334 335 334 335 335 336 336 336 337 336 336 336 337 338 339 338 339 340 337 336 338 338 335 334 336 335 332 332 332 331 330 328 328 331 333 333 332 332 332 332 332 330 329 331 333 334 333 334 334 334 334 331 330 330 330 329 327 328 325 323 325
338 336 335 334 333 333 335 337 336 336 336 336 337 338 339 339 339 339 339 336 336 339 338 336 336 336 335 333 333 332 330 329 328 328 329 332 332 332 332 332 332 332 332 332 333 334 335 334 333 335 334 333 331 331 331 331 331 330 330 327 325 325
339 337 337 336 334 333 335 337 337 337 337 335 337 339 339 338 337 338 338 336 337 338 338 337 337 336 335 334 333 331 329 330 330 328 329 330 331 331 331 332 332 333 333 334 335 335 336 335 333 335 333 332 332 333 332 332 331 330 330 330 329 328
339 338 339 339 337 334 334 337 338 338 336 334 337 338 337 336 336 336 336 336 336 338 338 337 336 335 334 334 332 331 331 332 331 330 330 330 330 330 331 332 332 333 333 333 334 335 335 334 333 333 332 332 333 333 333 332 330 330 331 331 330 330
339 338 339 339 336 334 334 337 338 337 336 334 336 338 337 336 336 335 335 335 335 337 337 336 336 334 334 333 332 333 334 334 332 330 332 332 331 330 330 332 331 332 333 333 333 334 334 334 333 333 332 331 332 333 333 332 331 330 331 330 330 330
339 338 338 337 335 335 336 337 337 337 336 335 336 338 337 336 336 335 335 335 335 336 336 335 335 334 334 333 333 334 335 335 333 331 332 333 333 331 330 331 332 332 333 333 333 332 333 334 333 331 331 330 330 333 333 333 332 331 330 330 330 331
339 338 337 337 335 335 337 337 337 337 336 336 336 337 337 337 337 336 335 335 335 336 336 335 335 334 334 334 334 334 334 334 333 332 331 331 333 332 330 331 332 332 332 332 332 332 333 333 332 331 331 330 330 331 333 333 333 332 330 329 330 330
339 338 337 337 336 336 337 337 337 337 337 336 337 337 337 337 337 336 335 335 335 336 335 335 334 334 334 334 334 334 334 333 333 333 330 330 333 333 331 331 331 332 333 332 332 333 333 332 331 330 330 330 330 332 333 333 333 331 329 329 329 329
338 338 338 337 337 337 337 337 337 337 338 337 337 337 337 337 336 336 335 335 335 336 335 334 334 334 334 333 333 333 333 333 333 333 332 332 334 333 332 332 332 333 332 332 333 332 331 331 331 330 330 330 330 332 333 333 333 331 330 329 328 329
339 338 338 338 338 338 337 337 337 338 338 338 338 337 337 337 337 336 336 335 335 336 335 334 334 334 334 333 333 333 333 333 333 334 333 334 334 333 333 333 333 333 333 333 333 331 330 330 330 330 331 330 331 332 332 333 333 332 331 329 328 329
339 338 338 338 338 338 338 337 338 339 338 338 338 337 337 337 337 336 336 335 334 335 334 334 334 334 333 333 333 332 331 332 334 334 334 334 333 334 334 334 334 333 333 333 333 331 329 330 330 330 330 330 331 332 332 333 333 332 331 330 329 328
338 338 338 337 337 338 338 338 339 339 338 337 337 336 336 337 337 337 337 335 334 334 334 334 334 333 332 332 332 329 327 331 335 334 334 334 334 335 335 334 334 332 331 332 332 331 330 330 330 329 329 329 331 332 333 333 333 332 331 330 329 328
338 339 338 337 337 338 338 338 339 338 338 337 337 336 336 336 337 337 337 336 334 334 334 334 334 333 330 330 331 328 328 333 335 334 334 335 335 335 334 333 334 332 330 330 332 332 330 330 329 330 329 330 331 332 332 333 333 332 331 331 330 329
338 338 339 338 338 338 338 337 338 337 336 336 336 336 336 336 337 337 337 336 334 334 334 334 334 332 329 330 331 329 331 334 334 334 334 334 335 335 333 332 334 333 331 331 332 332 330 330 330 330 330 329 332 333 332 332 332 332 332 331 330 330
338 338 339 339 338 338 338 337 337 336 335 336 335 335 335 336 337 336 336 335 334 335 335 334 333 332 331 332 332 331 333 333 333 334 333 333 334 335 333 332 333 333 331 330 331 331 330 330 330 330 329 329 331 332 331 331 331 331 331 331 331 331
339 338 339 340 338 337 337 337 336 335 335 335 335 335 335 336 337 336 336 335 335 335 334 331 331 331 331 333 333 333 334 333 333 334 332 334 334 334 333 332 332 333 332 331 331 331 330 331 331 331 331 330 331 331 331 331 330 330 330 330 330 331
339 339 339 339 338 336 335 336 335 334 334 335 335 334 335 336 336 336 336 336 335 334 331 328 330 331 331 333 333 333 334 332 334 334 333 334 334 334 332 331 332 333 333 332 331 331 330 331 332 331 331 331 331 330 331 331 330 330 329 329 330 330
340 340 339 339 338 336 335 336 335 335 334 334 334 334 334 335 335 335 336 335 334 332 328 327 329 330 330 333 332 332 332 332 334 335 334 334 334 333 332 332 332 332 333 333 331 330 330 331 331 331 330 330 330 330 330 330 330 329 329 329 329 329
340 340 339 338 338 337 335 335 334 334 334 333 333 333 333 334 334 335 335 334 332 330 328 327 329 331 332 333 333 332 332 333 334 334 333 334 334 333 332 332 332 333 333 332 331 330 330 331 331 330 330 330 330 330 330 329 329 330 329 329 329 329
340 340 339 339 338 337 336 335 334 334 334 333 333 333 333 333 334 334 334 334 332 330 330 330 331 332 333 334 334 333 332 333 333 332 333 334 333 333 332 332 332 333 333 332 331 330 331 332 331 330 331 331 329 329 331 329 328 330 330 330 329 329
339 339 338 338 337 337 337 335 334 334 334 333 333 334 334 333 333 334 334 333 333 332 331 331 332 333 333 333 334 333 334 333 330 330 333 333 333 332 332 333 332 333 333 332 331 330 332 332 331 329 330 331 330 331 332 330 329 330 329 330 329 328
339 338 338 338 337 337 336 335 334 334 333 333 333 334 334 333 333 333 333 333 333 333 331 331 331 333 333 332 332 332 332 331 329 331 333 333 333 332 332 332 332 332 332 332 331 331 332 332 331 330 330 330 331 332 331 330 331 330 328 328 328 328
338 339 338 338 338 337 335 334 335 335 334 334 334 334 333 333 333 333 333 333 333 333 331 331 332 334 334 333 331 330 330 330 330 332 333 333 333 332 331 331 331 332 332 332 332 330 331 332 331 332 331 330 331 330 329 329 330 330 330 329 327 327
338 338 338 338 338 336 335 334 335 335 334 334 333 333 333 333 333 333 333 333 333 332 331 331 333 334 334 333 331 330 330 331 332 332 332 333 333 331 330 331 331 331 331 332 332 331 331 332 332 332 331 331 331 330 328 329 329 328 329 330 329 328
339 338 338 338 337 336 335 335 335 335 334 333 333 332 333 333 333 333 333 333 333 332 332 332 332 333 333 333 332 331 332 333 332 332 332 333 332 331 331 331 331 331 331 331 332 331 331 331 331 331 331 331 331 329 328 328 328 327 327 329 330 327
338 338 338 337 337 336 335 335 335 334 334 333 333 333 333 332 333 332 332 332 332 332 333 333 333 333 333 332 332 331 332 334 332 331 332 332 332 331 331 330 331 331 331 331 332 332 330 330 331 330 330 330 330 329 329 329 328 327 327 327 328 325
338 337 338 337 336 336 336 335 335 335 334 334 333 333 333 332 332 332 332 332 332 332 332 333 334 335 334 333 333 332 333 333 332 331 331 331 331 331 330 330 331 331 332 332 331 331 330 330 330 331 330 329 330 329 329 329 328 328 327 326 326 324
338 337 338 337 336 337 336 335 335 335 334 334 333 332 332 332 332 332 331 331 331 332 332 333 334 334 334 334 333 333 333 332 331 330 329 329 330 331 330 330 330 330 332 332 331 331 331 330 330 331 330 329 329 328 328 329 328 328 327 326 325 323
337 336 337 336 336 337 336 336 335 335 335 334 333 332 331 331 331 332 332 331 331 333 333 333 334 334 334 334 333 334 334 332 332 331 328 328 330 330 330 330 330 331 332 332 332 332 332 331 330 330 330 328 329 329 328 328 328 328 327 326 325 322
338 336 336 336 336 336 336 336 336 335 335 334 333 332 332 331 331 332 332 331 332 333 333 333 333 334 333 333 334 334 334 333 333 332 329 329 330 330 331 330 330 332 333 332 332 331 332 331 330 330 329 328 328 328 328 327 327 328 327 326 325 321
336 337 336 335 336 337 336 336 336 335 334 333 333 332 332 332 332 332 332 331 332 332 333 333 333 333 332 332 333 334 334 333 334 333 330 330 330 330 331 332 332 333 333 331 331 331 331 330 330 331 329 328 327 327 328 327 327 327 326 326 325 322
330 334 336 336 336 337 336 336 337 335 332 333 334 333 332 333 332 332 332 332 332 333 333 333 332 332 331 331 331 332 332 333 333 333 331 331 330 330 330 331 332 332 332 332 331 330 330 330 330 331 330 328 327 327 327 327 326 326 325 325 326 323
328 330 333 335 336 336 336 337 337 334 332 333 334 332 333 332 332 332 332 333 333 332 332 331 331 331 331 330 330 331 331 332 332 332 332 331 330 330 330 330 330 330 331 331 330 330 330 330 330 330 329 328 328 327 328 327 326 326 325 325 326 324

ECMWFFLT2_925_thetae_048.txt.gz
Theta_e
342 342 341 340 339 339 338 338 339 338 334 336 338 338 339 338 337 338 337 337 336 338 338 338 338 336 337 338 338 337 336 335 333 333 332 331 331 331 329 322 320 326 330 330 331 332 333 333 332 332 330 330 329 325 317 313 314 320 326 328 328 327
341 341 340 339 338 339 339 338 339 338 335 338 340 339 340 339 338 338 338 337 337 338 338 338 338 337 337 337 337 336 335 334 333 332 332 332 331 331 329 325 321 323 328 330 331 333 333 334 334 333 331 329 326 321 316 315 316 318 323 325 325 326
340 340 339 339 339 339 339 338 339 337 336 338 340 340 340 341 339 338 338 338 337 337 338 338 337 337 337 337 336 336 335 335 333 332 333 332 331 331 329 327 325 324 328 331 332 333 334 334 335 335 333 329 325 322 320 320 320 320 323 325 326 327
341 341 340 340 339 339 339 339 338 335 336 338 339 340 340 341 339 339 338 337 337 337 337 337 336 337 337 337 337 336 336 335 333 332 333 332 331 332 329 327 329 329 330 331 332 333 334 335 334 334 333 329 326 324 323 322 321 322 325 328 329 327
341 341 340 340 340 340 339 338 336 335 337 338 339 339 340 340 339 339 338 336 337 337 336 335 335 337 337 337 336 336 335 333 331 331 333 333 332 332 330 328 329 330 331 331 332 334 335 336 334 333 332 329 327 326 324 324 324 322 323 325 327 328
339 340 340 340 340 339 338 336 336 336 338 338 338 338 338 338 338 339 338 337 337 337 336 333 333 335 335 335 335 333 332 331 329 330 332 333 332 332 332 329 328 329 330 331 333 334 336 336 334 332 330 329 328 328 327 327 326 324 322 322 325 328
337 336 336 338 339 338 337 336 336 337 337 338 338 337 337 338 338 338 338 337 336 337 336 333 333 334 334 333 333 331 330 330 328 329 332 333 332 332 332 331 329 328 329 331 333 335 337 336 334 332 330 329 330 330 330 329 328 326 325 324 326 328
335 333 332 334 337 337 336 336 336 337 336 337 337 336 336 338 338 338 338 337 335 337 337 334 333 335 334 332 332 331 330 329 328 329 331 332 332 331 332 332 332 330 330 333 333 335 337 335 334 332 331 330 331 332 330 330 329 329 327 327 328 327
335 334 333 333 334 335 335 336 337 337 336 336 336 336 336 338 339 338 338 336 335 337 337 335 335 335 334 333 332 331 330 329 329 329 330 331 331 331 332 331 332 332 332 333 334 336 336 335 333 331 332 332 332 332 330 330 330 330 329 328 329 329
335 335 335 333 333 334 335 337 338 337 337 336 336 336 337 338 338 338 338 336 335 337 337 335 336 335 334 333 332 330 332 332 330 330 330 330 330 331 331 331 332 333 333 333 334 336 336 334 333 331 332 332 332 332 331 331 331 330 329 328 329 329
337 337 336 334 333 334 335 337 339 339 338 337 337 338 338 338 337 337 338 336 335 336 336 336 335 334 333 332 331 332 333 333 331 331 332 331 330 330 330 331 331 332 332 332 333 336 335 333 332 331 330 331 332 332 331 331 330 329 328 328 329 328
339 338 337 334 334 335 335 336 339 339 338 337 338 338 338 337 336 336 336 335 335 336 336 336 335 334 333 332 332 334 334 334 333 332 332 332 332 330 329 331 331 331 332 331 333 335 334 333 332 331 330 330 331 332 332 331 330 329 328 329 328 327
338 338 338 335 335 335 335 336 338 338 337 337 338 338 337 336 335 335 335 335 335 335 336 336 335 334 333 333 333 334 334 334 333 332 332 332 333 332 330 331 331 332 332 332 333 334 333 332 331 330 330 330 330 332 333 332 330 328 329 329 327 326
337 338 338 336 335 335 335 336 337 338 337 337 338 337 337 337 336 336 335 335 335 335 336 336 334 333 333 333 333 334 334 333 333 333 333 333 333 333 332 332 332 332 332 332 333 333 332 331 331 330 330 329 330 332 333 332 329 328 328 328 326 324
336 337 338 337 334 334 335 336 337 337 337 336 337 337 337 337 337 336 335 335 335 335 335 335 334 334 334 333 333 333 333 332 333 334 334 334 334 333 334 333 333 332 332 332 332 331 331 331 330 330 330 330 331 332 333 331 329 328 327 327 325 324
335 337 337 337 334 334 335 336 336 337 336 337 337 337 337 337 337 336 336 336 336 335 335 335 334 334 334 333 333 333 333 333 334 335 334 333 334 333 334 333 333 333 332 332 332 330 330 330 330 330 330 331 332 332 333 332 330 329 326 325 326 326
335 337 337 336 335 335 336 337 337 336 336 337 337 337 337 337 337 336 336 336 336 336 335 335 334 334 334 333 333 332 332 331 332 335 335 334 334 334 333 333 333 333 332 332 331 330 330 330 330 330 330 331 332 332 332 332 332 330 327 325 326 326
335 337 337 337 336 336 337 337 337 337 337 338 338 338 337 337 337 336 336 336 336 336 336 335 335 334 333 332 332 332 329 328 330 334 334 334 334 334 334 333 332 332 332 331 331 330 329 330 329 329 330 332 332 332 333 332 332 331 329 327 327 328
335 337 338 337 337 337 338 337 337 338 338 338 338 338 337 336 337 337 337 336 336 336 336 335 334 332 332 332 331 329 327 327 330 333 334 334 333 334 333 332 332 331 331 331 331 330 329 329 329 329 331 332 332 332 332 332 332 331 330 329 328 329
336 337 337 338 338 338 337 337 337 338 338 338 337 337 337 336 336 337 337 337 336 335 335 334 333 331 330 330 329 327 325 328 333 333 332 333 333 334 333 332 332 331 331 331 331 330 329 329 329 329 331 332 332 332 332 332 331 331 330 330 329 330
337 338 338 337 337 337 337 337 337 338 337 336 336 336 336 335 335 336 337 336 335 334 334 334 333 331 329 330 330 328 328 331 333 332 331 332 333 334 333 332 332 331 331 331 330 330 330 329 329 330 330 331 330 330 331 332 331 331 330 330 330 330
338 338 338 337 337 337 337 336 337 337 336 335 336 335 335 335 335 336 336 336 335 334 334 334 334 332 330 331 329 328 331 333 332 332 331 332 333 333 332 332 332 331 330 330 330 330 330 330 330 330 330 330 329 328 329 330 330 330 330 330 330 330
338 338 338 338 338 338 337 336 336 336 336 335 334 334 334 335 335 335 335 336 335 335 334 333 333 332 329 331 331 330 333 333 332 332 332 332 333 332 332 332 332 332 330 330 330 330 330 330 330 330 330 330 330 329 329 329 329 329 329 330 331 331
338 337 338 338 338 338 337 336 335 335 334 334 333 333 334 333 334 335 335 336 335 334 334 332 332 331 329 330 332 332 332 332 332 332 332 333 333 332 332 331 331 332 331 330 330 330 331 331 330 330 329 329 329 329 330 329 328 329 329 329 330 330
339 338 338 338 338 337 337 336 334 333 333 333 333 333 333 333 334 334 335 335 335 333 333 331 329 329 330 330 331 332 331 332 332 332 332 333 333 333 332 332 332 332 331 330 330 330 331 331 330 330 329 329 329 330 331 329 328 329 329 329 329 328
339 339 338 338 338 337 337 336 335 333 333 332 332 332 332 333 333 334 334 335 334 333 332 330 327 327 329 330 331 331 332 332 332 332 331 332 333 333 332 332 332 332 332 331 330 330 331 331 330 329 329 329 329 330 329 328 329 330 328 328 329 328
339 339 339 338 338 337 337 337 335 333 333 332 332 332 332 332 333 333 334 334 334 332 331 329 327 328 331 332 332 332 332 333 333 331 330 332 333 332 332 332 332 332 332 331 331 330 331 331 330 330 330 328 329 329 328 328 329 329 329 328 327 327
339 338 339 338 337 337 337 337 335 334 333 332 332 332 332 332 332 332 333 334 334 332 331 330 329 331 332 333 333 332 332 333 333 331 330 331 333 332 332 332 332 333 333 332 331 330 331 332 330 330 331 330 330 329 328 328 328 327 329 329 327 327
338 338 338 338 337 337 337 336 335 335 334 333 332 332 332 332 331 331 332 333 334 333 333 332 331 332 333 333 333 331 331 332 332 330 329 331 333 332 331 331 332 332 332 332 331 331 331 331 330 330 331 331 330 329 328 328 328 326 327 328 329 327
337 337 337 337 337 337 337 336 335 335 334 333 333 332 332 332 331 331 332 332 333 333 333 332 331 332 333 333 332 332 332 332 331 330 330 331 333 332 331 330 331 332 332 332 331 331 331 331 330 330 331 331 330 328 327 327 327 326 326 326 328 326
336 337 337 337 337 336 336 336 335 334 334 333 333 332 332 332 331 331 331 332 332 333 332 331 331 332 332 332 333 333 332 331 331 331 331 332 332 332 331 330 330 331 331 332 332 331 331 330 330 330 330 330 329 328 327 327 326 326 326 324 324 322
336 337 338 337 337 336 335 335 334 334 334 334 333 332 332 332 331 331 331 332 332 333 332 331 331 332 333 333 333 332 332 331 331 332 332 332 332 332 331 330 330 331 331 331 332 332 331 331 331 330 330 329 329 328 328 328 327 326 326 323 322 320
336 337 337 337 337 336 335 334 334 334 334 334 334 332 332 332 331 331 332 332 332 333 332 332 332 332 333 333 333 332 332 332 332 332 332 332 331 331 331 330 330 331 331 330 331 332 331 331 331 330 330 329 329 328 328 328 327 327 326 322 320 318
335 336 337 336 335 334 334 335 334 334 334 333 333 332 331 331 331 332 332 332 331 331 332 332 332 333 333 333 332 332 332 332 332 331 331 331 331 331 331 330 329 330 331 331 331 332 331 331 331 330 329 329 329 328 328 328 327 327 326 322 319 318
329 331 333 332 331 333 334 334 334 334 334 333 332 332 331 331 331 332 331 331 330 331 331 331 332 333 334 333 332 333 333 332 332 331 331 331 330 330 330 330 329 330 331 332 332 331 331 330 330 330 330 328 328 328 328 328 327 327 326 323 320 319
325 326 328 329 330 332 333 332 330 330 333 334 333 332 331 331 331 331 331 330 330 331 331 331 333 333 332 332 332 333 333 332 332 331 331 330 330 330 330 330 330 330 331 332 332 331 331 331 330 330 329 329 328 328 328 328 328 327 327 325 322 319
325 326 327 327 329 329 330 330 329 327 329 331 333 332 331 331 331 331 331 331 330 331 332 332 333 333 332 332 333 333 332 332 332 331 331 331 330 330 330 330 330 330 331 332 332 332 331 332 331 330 329 329 327 328 328 327 327 327 327 326 324 321